Madison, WI

4:10 PM CST on November 20, 2019 (GMT -0600)
Dane County Regional-Truax

Weather History for KMSN - June, 2019

Change the Weather History Date:

Tuesday, June 11, 2019

  Actual Average Record
Temperature  
Mean Temperature 63 °F 66 °F  
Max Temperature 78 °F 77 °F 94 °F (1956)
Min Temperature 48 °F 55 °F 35 °F (1972)
Degree Days  
Heating Degree Days 2 2  
Month to date heating degree days 17 38  
Since 1 June heating degree days 17 38  
Since 1 July heating degree days 7476 7311  
Cooling Degree Days 0 3  
Month to date cooling degree days 25 26  
Year to date cooling degree days 45 56  
Since 1 June cooling degree days 25 26  
Growing Degree Days 13 (Base 50)    
Moisture  
Dew Point 49 °F    
Average Humidity 62    
Maximum Humidity 93    
Minimum Humidity 31    
Precipitation  
Precipitation 0.05 in 0.15 in 2.41 in (1876)
Month to date precipitation 1.10 1.64  
Year to date precipitation 16.91 13.47  
Snow  
Snow 0.00 in 0.00 in 0.00 in (2018)
Month to date snowfall 0.0 0.0  
Since 1 June snowfall 0.0 0.0  
Since 1 July snowfall 57.2 50.9  
Snow Depth 0.00 in    
Sea Level Pressure  
Sea Level Pressure 30.10 in    
Wind  
Wind Speed 4 mph (SW)    
Max Wind Speed 17 mph    
Max Gust Speed 32 mph    
Visibility 10 miles    
Events Rain , Thunderstorm    
T = Trace of Precipitation, MM = Missing Value Source: NWS Daily Summary

Daily Weather History Graph

Daily Weather History Graph

Search for Another Location

Airport or City:

Astronomy

Jun. 11, 2019 Rise Set
Actual Time 5:17 AM CDT 8:36 PM CDT
Civil Twilight 4:42 AM CDT 9:12 PM CDT
Nautical Twilight 3:56 AM CDT 9:58 PM CDT
Astronomical Twilight 2:59 AM CDT 10:54 PM CDT
Moon 2:25 PM CDT (6/11) 2:12 AM CDT (6/11)
Length of Visible Light 16h 30m
Length of Day
15h 19m
Waxing Gibbous, 66% of the Moon is Illuminated
Jun 11
Waxing Gibbous
Jun 17
Full
Jun 25
Last Quarter
Jul 2
New
Jul 9
First Quarter

Hourly Weather History & Observations

Time (CDT) Temp. Dew Point Humidity Pressure Visibility Wind Dir Wind Speed Gust Speed Precip Events Conditions
12:53 AM 53.1 °F 46.9 °F 80% 30.13 in 10.0 mi Calm Calm - N/A   Clear
1:53 AM 52.0 °F 48.9 °F 89% 30.12 in 10.0 mi Calm Calm - N/A   Clear
2:53 AM 51.1 °F 48.0 °F 89% 30.13 in 10.0 mi Calm Calm - N/A   Clear
3:53 AM 50.0 °F 48.0 °F 93% 30.13 in 10.0 mi Calm Calm - N/A   Clear
4:53 AM 50.0 °F 46.9 °F 89% 30.14 in 10.0 mi Calm Calm - N/A   Clear
5:53 AM 50.0 °F 46.9 °F 89% 30.16 in 10.0 mi Calm Calm - N/A   Mostly Cloudy
6:53 AM 55.0 °F 48.9 °F 80% 30.16 in 10.0 mi Calm Calm - N/A   Mostly Cloudy
7:53 AM 66.9 °F 46.0 °F 47% 30.15 in 10.0 mi SW 5.8 mph - N/A   Mostly Cloudy
8:53 AM 70.0 °F 46.0 °F 42% 30.15 in 10.0 mi Variable 3.5 mph - N/A   Scattered Clouds
9:53 AM 72.0 °F 46.0 °F 40% 30.14 in 10.0 mi SW 8.1 mph - N/A   Mostly Cloudy
10:53 AM 75.0 °F 44.1 °F 33% 30.12 in 10.0 mi WSW 5.8 mph - N/A   Mostly Cloudy
11:53 AM 75.9 °F 43.0 °F 31% 30.11 in 10.0 mi SSW 5.8 mph - N/A   Mostly Cloudy
12:53 PM 77.0 °F 44.1 °F 31% 30.09 in 10.0 mi Variable 5.8 mph - N/A   Mostly Cloudy
1:53 PM 75.9 °F 45.0 °F 33% 30.08 in 10.0 mi Variable 5.8 mph - N/A   Mostly Cloudy
2:23 PM 72.0 °F 42.1 °F 34% 30.09 in 10.0 mi WNW 16.1 mph 31.1 mph 0.00 in Rain , Thunderstorm Light Thunderstorms and Rain
2:53 PM 64.0 °F 51.1 °F 63% 30.14 in 10.0 mi SW 13.8 mph 32.2 mph 0.00 in Rain , Thunderstorm Light Thunderstorms and Rain
3:02 PM 62.6 °F 51.8 °F 68% 30.14 in 9.0 mi WSW 8.1 mph 27.6 mph N/A Rain Light Rain
3:53 PM 66.0 °F 55.0 °F 68% 30.11 in 10.0 mi NNW 4.6 mph - 0.02 in   Overcast
4:53 PM 66.9 °F 54.0 °F 63% 30.08 in 10.0 mi Calm Calm - N/A   Overcast
5:53 PM 66.9 °F 52.0 °F 59% 30.06 in 10.0 mi ENE 4.6 mph - N/A   Mostly Cloudy
6:53 PM 66.0 °F 51.1 °F 59% 30.04 in 10.0 mi ESE 4.6 mph - N/A   Overcast
7:53 PM 64.9 °F 51.1 °F 61% 30.03 in 10.0 mi SE 4.6 mph - N/A   Overcast
8:53 PM 64.0 °F 52.0 °F 65% 30.01 in 10.0 mi SE 4.6 mph - N/A   Mostly Cloudy
9:53 PM 64.9 °F 51.1 °F 61% 30.02 in 10.0 mi South 8.1 mph - N/A   Overcast
10:53 PM 63.0 °F 51.1 °F 65% 29.99 in 10.0 mi Calm Calm - 0.00 in   Overcast
11:53 PM 62.1 °F 53.1 °F 72% 30.02 in 10.0 mi WNW 10.4 mph 21.9 mph 0.00 in Rain Light Rain